Regional Weather Roundup
Issued by NWS Wakefield, VA

Home | Current Version | Previous Version | Text Only | Print | Product List | Glossary On
Versions: 1 2 3 4 5 6 7 8 9 10 11 12 13 14 15 16 17 18 19 20 21 22 23 24 25 26 27 28 29 30 31 32 33 34 35 36 37 38 39 40 41 42 43 44 45 46 47 48 49
000
ASUS41 KAKQ 260710
RWRAKQ

REGIONAL WEATHER ROUNDUP
NATIONAL WEATHER SERVICE WAKEFIELD VA
200 AM EST MON JAN 26 2015

Note: "fair" indicates few or no clouds below 12,000 feet with no
significant weather and/or obstructions to visibility. * = Denotes
station may not report precipitation (e.g., rain,snow,etc.),
thunder or fog.

VAZ042-051-052>054-056-260800-
NORTHERN VIRGINIA

CITY           SKY/WX    TMP DP  RH WIND       PRES   REMARKS
WASH NATIONAL  CLOUDY    44  33  65 NE7       29.83F
DULLES         CLOUDY    42  32  67 E5        29.81F
FORT BELVOIR   DRIZZLE   39  32  75 E1        29.82F
QUANTICO       LGT RAIN  40  34  79 SE6       29.82F
FREDERICKSBRG* CLOUDY    40  35  82 CALM      29.79F
STAFFORD*      DRIZZLE   40  34  79 CALM      29.83F
WARRENTON      CLOUDY    40  38  95 CALM      29.78F
CULPEPER*      CLOUDY    37  36  93 CALM      29.79S
MANASSAS*      CLOUDY    43  36  75 CALM      29.80F
LEESBURG*      DRIZZLE   37  37 100 N3        29.82S
WINCHESTER     DRIZZLE   37  34  87 N6        29.78F
FRONT ROYAL*   CLOUDY    36  34  93 N5        29.76F
LURAY*         LGT RAIN  36  36 100 NE5       29.74F
$$

VAZ048-049-060>072-079>083-260800-
CENTRAL AND SOUTH CENTRAL VIRGINIA

CITY           SKY/WX    TMP DP  RH WIND       PRES   REMARKS
RICHMOND       CLOUDY    41  35  79 E5        29.79F
CHESTERFIELD*  CLOUDY    43  27  52 SE5       29.79F
PETERSBURG*    CLOUDY    41  35  78 CALM      29.78F
HANOVER        CLOUDY    42  34  73 VRB3      29.80F
TAPPAHANNOCK*  CLOUDY    41  32  69 SE3       29.82F
QUINTON*       CLOUDY    39  34  81 MISG      29.80F
CHARLOTTSVILLE CLOUDY    38  32  79 CALM      29.75F
GORDONSVILLE*  CLOUDY    33  32  96 CALM      29.76F
ORANGE*        CLOUDY    36  34  93 CALM      29.78F
LOUISA*        CLOUDY    39  36  87 CALM      29.75F
BUMPASS*       CLOUDY    40  33  76 E8        29.77F
FARMVILLE*     DRIZZLE   45  37  72 S5        29.74S
CREWE*         CLOUDY    42  36  79 S3        29.75S
FORT PICKETT*  CLOUDY    40  36  84 SE5       29.76F
CHASE CITY*    CLOUDY    43  38  84 CALM      29.75S
CLARKSVILLE*   CLOUDY    43  34  70 SE3       29.74S
SOUTH HILL*    CLOUDY    40  34  79 S6        29.82S
LAWRENCEVILLE* FAIR      39  35  86 E3        29.77S
EMPORIA*       MOCLDY    36  34  93 E5        29.80F
$$

VAZ088>098-260800-
SOUTHEAST VIRGINIA

CITY           SKY/WX    TMP DP  RH WIND       PRES   REMARKS
NORFOLK        PTCLDY    39  33  79 SE5       29.82F
VIRGINIA BEACH PTCLDY    36  32  85 CALM      29.83F
NORFOLK NAVAL  MOCLDY    40  33  76 SE7       29.84F
WEST POINT*    CLOUDY    42  34  73 E6        29.83F
SALUDA*        FAIR      39  34  81 SE6       29.83F
NEWPORT NEWS   MOCLDY    39  33  79 E5        29.82F
LANGLEY AFB    MOCLDY    38  34  84 SE2       29.82F
FORT EUSTIS    CLOUDY    40  37  89 SE5       29.80F
WILLIAMSBURG*    N/A     43  37  81 SE3       29.82F
HR EXEC AP*    FAIR      30  27  86 E3        29.84F
FRANKLIN*      PTCLDY    33  32  96 CALM      29.81F
WAKEFIELD      MOCLDY    38  33  82 CALM      29.80F
$$

VAZ020-022-025-037-045-260800-
WEST CENTRAL AND SOUTHWEST VIRGINIA

CITY           SKY/WX    TMP DP  RH WIND       PRES   REMARKS
STAUNTON*      CLOUDY    36  32  85 CALM      29.73F
WAYNESBORO*    CLOUDY    40  32  71 CALM      29.71F
HOT SPRINGS VA LGT SNOW  33  33 100 SE5       29.63S
LYNCHBURG      CLOUDY    40  34  79 CALM      29.74S
DANVILLE       LGT RAIN  45  34  65 CALM      29.72F
SOUTH BOSTON*  CLOUDY    42  34  74 CALM      29.75S
MARTINSVILLE   CLOUDY    40  35  80 CALM      29.71S
ROANOKE        CLOUDY    43  32  65 SE8       29.70F
BLACKSBURG     CLOUDY    37  30  77 E6        29.68F
DUBLIN*        CLOUDY    37  33  85 CALM      29.66F
MARION*        MOCLDY    35  30  81 CALM      29.66S
HILLSVILLE*    MOCLDY    38  31  73 S7        29.63F
RICHLANDS*     PTSUNNY   41  28  61 S5        29.61F
WISE*          CLOUDY    37  32  81 SW8       29.62S
ABINGDON*      CLOUDY    38  33  80 CALM      29.63S
$$

MDZ021>025-VAZ099-100-260800-
SOUTHERN MARYLAND AND THE DELMARVA PENINSULA

CITY           SKY/WX    TMP DP  RH WIND       PRES   REMARKS
PATUXENT RIVER CLOUDY    40  35  83 SE9       29.83F
BAY BRIDGE APT   N/A     41  32  70 E7        29.87S
LEONARDTOWN    CLOUDY    41  34  75 CALM      29.84S
DOVER          CLOUDY    38  33  83 NE10      29.91R
GEORGETOWN     CLOUDY    41  33  73 E3        29.89R
EASTON         CLOUDY    43  35  75 SE5       29.89F
CAMBRIDGE      CLOUDY    43  32  65 SE8       29.85F
SALISBURY      CLOUDY    43  35  73 CALM      29.88R
OCEAN CITY     CLOUDY    40  36  86 CALM      29.88F
WALLOPS ISLAND CLOUDY    38  37  97 CALM      29.88F
ACCOMACK*      CLOUDY    37  34  87 SE3       29.85F
$$

NCZ012>017-030>032-260800-
NORTH CENTRAL AND EASTERN NORTH CAROLINA

CITY           SKY/WX    TMP DP  RH WIND       PRES   REMARKS
ROANOKE RAPIDS CLOUDY    36  34  93 E3        29.77F
RALEIGH        CLOUDY    41  33  73 CALM      29.75F
ELIZABETH CITY PTCLDY    38  36  92 SE3       29.83F
AHOSKIE*       MOCLDY    34  32  94 CALM      29.79F
EDENTON*       PTCLDY    36  35  94 E3        29.81F
CURRITUCK*     PTCLDY    34  33  94 CALM      29.83F
KILL DEVIL HLS PTCLDY    41  40  95 CALM      29.81F
MANTEO         PTCLDY    36  36 100 CALM      29.83F
CAPE HATTERAS  CLEAR     45  40  82 NE7       29.81F
TARBORO*       FAIR      36  35  94 CALM      29.79F
GOLDSBORO      MOCLDY    40  39  98 SE3       29.75F
WASHINGTON     CLOUDY    37  35  92 CALM      29.80F
GREENVILLE     CLOUDY    37  36  93 CALM      29.81F
NEW BERN       CLOUDY    40  36  86 CALM      29.81F
WILMINGTON     PTCLDY    46  42  86 S7        29.79F
$$

VAZ048-260800-
ELSEWHERE

CITY           SKY/WX    TMP DP  RH WIND       PRES   REMARKS
HARRISBURG PA  SNOW      28  25  88 E9        29.90S VSB 1/2
BALTIMORE      LGT RAIN  39  33  79 NE10      29.85F
ANNAPOLIS      CLOUDY    41  32  70 E8        29.85F
ANDREWS AFB    MIX PCPN  41  32  70 E7        29.81F
PHILADELPHIA   FLURRIES  30  26  85 NE12      29.97R WCI  20
HENDERSON NC   CLOUDY    41  33  73 S5        29.74F
GREENSBORO     CLOUDY    41  33  73 S6        29.68F
ROCKY MOUNT    PTCLDY    38  34  85 CALM      29.77F
$$

VAZ100-260800-
MARINE

STATION/POSITION TIME  TEMP    WIND        PRES    WAVE   SWELL
                       AIR SEA DIR/SP/G            HT/PER HT/PER
                 (UTC) (F)     (DEG/KT/KT) (MB)    (FT/S) (FT/S)
BRANDYWINE LGT   0700           90/ 16/ 18 1012.9R
CAPE MAY NJ      0700   40      60/  8/ 17 1012.7R
LEWES DE         0700   40      40/  8/  9 1012.5R
15NM E FENWICK I 0700   43 42              1011.8F   2/11
OCEAN-CITY-INLET 0700          180/  2/  2 1011.5S
WACHAPREAGUE VA  0700   40      80/  2/  2 1010.9F
THOMAS POINT MD  0700   40 38   60/  9/  9 1012.0F
GOOSES REEF MD   0700   40     VRB 12/ 14  1009.4F
COVE POINT MD    0700   38     160/ 13/ 14 1010.1F
SOLOMONS ISLAND  0600      39                N/A
BISHOPS HEAD MD  0700   41     130/ 10/ 12 1010.0F
PINEY POINT MD   0700          120/  8/  9   N/A
POTOMAC MD       0700   40     170/ 10/ 12 1009.0F
CAMBRIDGE MD     0700   42     140/  4/  7 1010.7F
LEWISETTA VA     0700   41     160/  5/  7 1009.5F
RAPPAHANNOCK LGT 0700          120/ 10/ 11 1010.8F
STINGRAY PT      0700   40     160/  8/  8 1011.0S
YORK RVR RNG VA  0700   41     150/  9/ 10 1009.3F
YORKTOWN VA      0700          140/  3/  5 1009.6F
JAMESTOWN VA     0700   40     120/  6/  8   N/A
DOMINION TERM VA 0700   41     340/  1/  2 1010.0F
KIPTOPEKE VA     0700          130/  6/  9   N/A
CHES BAY BRIDGE  0700          110/  6/  8 1009.6F
CAPE HENRY VA    0700   42     130/  7/  7 1009.0F
CHESAPEAKE LGHT  0600   45     160/  4/  5 1012.1F
WILLOUBY STN VA  0700   41     130/  6/  7 1010.3F
S CRANEY ISL VA  0700           CALM  /  2 1009.9F
CAPE HENRY BUOY  0700      44                N/A     2/ 9
1ST LANDING BUOY 0700   42     140/  6/  8 1010.1F
CAPE CHARLES BUO 0700      43                N/A     2/11   2/11
OFFSHORE WE BUOY 0700      47                N/A     2/ 9   2/ 9
64NM E OF VA BCH 0700   50 53  200/  4/  6 1010.5F   3/ 9   3/ 9
DUCK PIER NC     0700   42     110/  4/  4 1009.3F
44100 DUCK FRF   0700      44                N/A     2/ 8   2/11
44056 DUCK FRF   0700      43                N/A     2/ 9   2/11
OREGON INLET NC  0700   44      70/  4/  5 1009.9F
HATTERAS NC      0700           70/  5/  6 1009.7F


USA.gov is the U.S. government's official web portal to all federal, state and local government web resources and services.